Theta_e
307 308 310 311 311 312 313 313 313 313 314 315 316 317 317 316 314 309 309 314 311 305 309 312 312 308 310 307 302 308 307 310 308 304 303 304 303 305 303 306 303 301 299 298 300 297 296 315 318 310 315 323 324 326
306 307 309 310 310 311 312 312 313 313 313 314 315 316 316 316 316 312 306 313 316 304 306 315 315 317 315 314 312 314 311 309 311 306 307 307 303 305 304 299 309 300 304 301 303 302 314 319 320 324 322 320 323 327
306 306 309 310 309 310 312 312 313 313 313 313 314 315 315 315 315 312 310 313 311 307 306 307 307 315 319 318 319 306 309 310 309 312 305 305 302 306 301 302 305 309 312 305 306 308 311 315 321 323 324 323 329 331
305 306 307 309 309 310 312 312 312 313 313 313 313 314 314 314 314 313 309 312 310 306 298 303 315 313 318 317 317 317 314 312 314 311 304 303 302 308 303 305 303 306 310 308 307 311 313 317 320 323 325 328 329 333
305 305 306 308 310 309 311 312 312 312 312 312 313 313 313 313 313 314 312 312 313 304 298 301 307 313 315 316 315 315 314 312 312 305 303 300 305 307 309 308 304 309 307 305 304 314 315 316 322 326 325 327 330 328
305 305 306 308 310 310 311 312 312 312 312 312 312 312 312 313 313 312 304 311 313 311 300 295 307 309 312 314 313 311 314 312 311 307 305 306 309 306 301 303 310 313 312 312 310 315 317 318 322 324 324 327 329 327
304 305 306 308 310 311 311 312 311 311 311 311 311 310 311 311 317 308 305 309 312 312 300 297 299 309 311 311 311 309 311 312 310 306 304 305 306 305 304 301 308 310 311 312 315 316 315 317 317 323 326 325 323 326
304 305 307 308 310 311 311 311 311 311 310 310 310 310 310 311 311 312 314 311 314 307 305 296 297 303 313 306 304 312 308 309 311 307 308 304 306 304 301 307 310 312 313 313 314 316 317 319 322 324 324 322 320 319
305 306 307 309 310 311 311 311 311 310 310 310 310 311 316 314 312 313 314 313 315 307 298 298 295 294 308 305 306 305 307 299 307 302 303 305 302 297 302 308 310 312 311 310 313 314 316 318 319 320 319 317 314 314
305 307 308 309 310 311 311 311 310 309 309 309 313 313 309 312 314 314 309 304 304 305 303 296 302 296 302 303 300 300 302 297 295 300 303 299 298 305 308 310 310 310 312 312 310 311 314 316 317 318 316 316 315 316
306 307 309 310 310 311 311 310 309 308 310 315 312 310 313 312 312 307 301 298 300 297 301 301 302 298 305 297 298 302 296 297 291 296 297 294 296 305 310 309 309 311 313 314 317 318 319 320 317 316 317 317 317 318
306 307 309 310 311 311 310 309 309 312 312 308 308 309 309 306 305 301 303 304 300 296 303 303 303 304 304 306 299 301 296 297 291 301 295 293 303 307 310 310 310 314 314 314 318 320 320 319 319 319 320 318 317 318
307 308 309 310 310 309 310 310 310 309 309 311 307 305 307 307 294 294 292 300 300 307 307 305 301 304 306 306 302 300 295 294 301 294 293 298 304 307 311 311 311 313 314 315 316 317 318 320 322 321 317 316 316 317
307 308 309 309 309 310 310 309 309 311 312 307 305 293 301 299 301 302 301 303 307 307 305 305 304 302 305 302 303 295 299 300 291 291 293 300 304 307 311 312 310 311 313 313 314 315 316 317 317 316 314 315 316 316
307 309 309 309 310 310 309 309 309 314 313 307 307 297 300 304 304 304 306 305 306 308 306 304 306 304 304 301 304 302 297 293 293 291 297 302 304 308 311 311 311 312 313 314 315 315 315 314 313 314 315 316 317 318
308 309 312 310 309 309 308 310 314 317 315 309 307 302 306 302 301 303 303 303 307 306 307 306 301 300 298 299 297 294 294 289 293 299 302 304 308 308 310 312 313 313 315 315 314 314 314 314 315 317 318 318 318 319
308 311 309 308 308 308 309 314 316 312 310 305 305 309 306 305 303 303 305 304 308 305 301 302 296 295 302 296 294 297 293 296 299 302 303 307 307 307 309 311 313 315 315 315 316 316 317 318 318 317 316 317 318 319
310 313 309 308 309 311 316 316 313 309 302 306 302 306 308 307 305 306 308 310 306 303 303 300 303 297 295 293 294 298 302 303 302 302 304 307 309 310 311 312 314 314 314 314 315 316 316 314 314 314 316 318 318 319
310 310 308 308 310 311 311 313 315 304 305 308 307 308 308 308 310 310 310 311 310 308 305 303 298 299 300 303 301 302 303 305 304 304 303 306 307 308 308 309 311 311 312 313 312 312 313 315 315 315 315 316 315 317
307 308 308 310 311 312 307 311 316 308 303 307 309 306 307 307 310 310 309 309 308 305 301 300 301 302 302 304 305 304 305 306 304 303 302 305 306 305 305 305 306 309 309 308 308 305 307 307 310 311 314 314 315 315
309 314 312 312 315 313 312 312 309 312 309 307 310 308 306 311 308 308 307 311 306 304 301 305 306 306 307 307 306 306 304 306 304 306 304 302 304 307 306 306 307 307 309 308 306 305 307 307 308 310 309 309 311 313
316 310 316 315 312 312 308 315 312 314 309 308 308 310 305 306 307 308 311 305 305 304 306 307 306 306 304 305 305 306 304 304 304 305 301 302 301 301 302 305 305 305 307 308 308 306 306 306 307 308 308 308 308 310
310 312 314 312 307 303 302 315 307 309 303 305 307 303 305 304 307 310 303 306 306 308 308 307 308 309 307 308 307 304 303 304 303 304 304 303 303 304 305 307 309 306 305 306 309 309 308 303 305 307 307 308 309 309
307 309 306 305 306 299 311 307 311 308 308 304 303 299 302 307 309 304 301 306 305 307 306 308 307 306 306 307 304 304 303 304 303 303 304 304 304 306 306 306 307 309 309 309 309 310 310 310 303 309 308 309 308 308
300 299 301 292 307 303 302 303 304 305 300 302 300 301 305 308 302 301 301 304 303 304 306 307 307 307 305 305 306 307 310 307 307 306 308 309 307 308 308 308 309 309 311 310 310 309 310 311 310 309 310 309 309 308
293 302 296 304 307 303 305 299 299 300 303 300 302 307 309 304 298 297 303 304 303 304 305 306 305 305 305 306 305 306 307 311 311 307 308 312 311 309 307 306 304 307 312 312 310 309 309 310 310 309 309 308 298 307
292 300 307 312 310 309 305 306 307 304 301 300 305 303 304 297 297 303 308 307 304 307 309 309 308 306 305 306 308 309 310 311 311 311 312 314 312 312 310 307 305 308 311 311 311 309 307 307 307 307 308 309 309 309
305 306 303 309 308 310 305 305 303 300 304 309 306 299 297 298 300 308 310 310 307 309 309 310 311 311 309 310 311 311 311 312 312 313 312 312 312 313 312 314 313 296 312 312 312 310 309 308 307 306 307 308 309 310
303 309 309 305 307 308 308 305 305 309 312 309 304 301 302 309 313 310 310 308 308 308 307 307 308 311 311 312 313 312 312 311 307 304 303 304 304 306 311 312 310 311 312 310 295 302 307 307 307 308 308 308 309 310
306 310 307 307 305 303 308 310 309 313 313 312 312 310 308 309 311 312 310 307 305 305 306 307 308 308 307 307 306 308 310 310 310 307 303 302 303 306 308 308 309 310 311 309 307 307 295 304 302 307 307 307 307 307
313 311 308 308 306 311 314 315 313 312 309 309 311 307 308 308 309 311 310 308 307 308 307 306 307 308 307 306 307 306 305 309 310 310 309 307 308 308 308 308 309 310 310 309 307 306 306 305 305 305 305 305 305 303
310 308 307 304 306 313 313 310 308 306 308 307 307 309 308 306 304 307 310 310 307 306 305 306 307 307 309 311 312 312 297 311 311 311 310 308 308 309 309 309 309 309 308 307 307 307 306 305 305 304 304 304 304 305
309 309 309 307 307 307 310 308 306 305 308 307 308 309 308 307 303 309 311 311 309 308 308 309 310 312 313 312 311 310 302 311 308 300 299 297 298 302 308 309 309 309 308 307 307 306 305 304 305 304 304 304 305 305
Wind_Speed
13 14 15 14 14 15 15 15 16 17 18 19 20 19 15 9 14 9 4 9 7 3 9 9 11 14 11 4 2 4 5 10 8 10 9 11 13 15 19 22 23 15 10 12 14 16 22 9 12 13 1 4 8 11
13 14 15 14 14 16 16 16 16 17 17 18 18 19 16 6 7 14 2 5 7 3 5 6 13 16 15 14 6 4 7 6 4 3 2 4 9 10 14 14 16 14 11 12 9 12 4 7 5 6 2 3 1 8
13 15 15 15 15 16 16 16 16 17 17 18 17 17 16 9 4 13 2 2 3 4 7 14 17 16 15 11 9 5 3 2 4 7 3 3 7 7 10 12 16 13 17 5 10 15 11 5 6 5 2 2 2 6
14 15 15 16 15 15 16 16 16 16 17 17 17 15 15 9 4 12 2 2 1 3 3 6 4 9 10 14 16 13 12 6 6 3 1 3 5 5 7 9 5 11 7 14 13 10 7 10 7 6 5 5 5 7
14 15 16 16 15 16 16 16 16 15 17 16 16 14 12 8 2 3 2 2 1 2 3 3 12 15 13 9 11 13 15 14 8 4 4 4 4 8 9 8 10 8 7 6 5 10 12 12 12 11 10 11 10 12
15 15 17 15 16 15 16 16 16 16 15 15 14 10 6 6 4 1 1 3 3 3 3 3 5 10 7 6 10 10 11 7 4 4 4 5 4 4 4 11 14 9 5 9 11 11 8 8 14 12 8 11 14 15
15 16 17 16 16 15 15 15 16 15 15 14 13 9 5 2 2 1 1 1 4 4 2 3 5 3 8 11 7 6 6 5 4 3 4 3 7 4 10 13 10 6 7 5 12 10 15 10 7 10 11 15 19 17
16 17 17 18 17 15 15 15 16 15 15 14 12 7 5 2 1 3 2 4 3 1 2 3 5 5 5 4 4 5 5 6 6 3 4 4 4 3 7 10 9 13 15 12 13 15 14 11 13 14 15 15 18 15
16 16 18 17 16 14 14 15 15 16 16 15 8 5 5 4 2 3 5 4 1 2 2 3 3 3 1 2 0 2 2 4 3 5 5 5 5 8 9 13 15 14 10 7 11 12 14 14 17 17 17 16 14 13
17 17 17 17 15 13 14 14 14 16 17 10 6 5 3 2 4 4 2 2 2 2 2 3 2 4 1 2 1 0 0 1 3 2 3 5 4 9 12 11 7 14 10 10 13 10 10 12 17 19 17 14 11 11
18 18 16 16 13 12 13 13 12 15 11 2 3 2 4 2 2 3 3 3 3 3 4 4 3 3 4 4 2 3 2 2 3 2 3 2 4 8 5 6 8 14 4 7 2 6 11 14 16 17 14 13 11 12
18 18 17 13 12 12 12 11 9 7 4 5 4 2 2 3 4 4 3 5 4 2 3 5 3 3 2 3 3 4 3 3 3 3 2 3 4 6 8 7 7 7 7 10 11 14 12 13 11 14 14 13 12 11
17 17 14 10 11 11 11 9 6 8 8 2 3 3 4 3 3 2 4 2 5 1 2 6 5 2 2 3 3 2 3 0 4 2 2 1 5 6 10 8 1 5 8 9 11 12 10 13 12 12 13 12 13 11
16 15 12 11 11 11 10 9 7 5 5 3 3 3 4 1 3 3 7 7 5 6 7 6 4 2 3 4 4 3 3 4 1 2 2 4 9 11 10 8 5 5 8 14 10 14 9 13 12 11 11 11 11 10
16 15 13 12 7 10 12 11 7 5 4 4 3 2 2 4 4 5 6 6 7 5 7 6 3 3 3 4 3 3 3 3 3 2 4 7 11 9 8 6 3 6 8 9 11 14 14 13 11 11 9 9 8 9
16 17 3 1 9 12 13 5 5 3 3 3 4 3 1 4 4 4 6 5 6 6 6 3 3 4 1 3 2 4 3 3 2 4 6 8 9 8 6 3 2 5 8 10 11 12 13 12 12 12 10 8 8 9
12 4 3 6 11 16 5 4 3 6 4 3 2 1 3 3 4 5 5 6 6 6 4 4 4 3 3 2 2 4 3 2 4 5 5 6 6 6 5 6 7 8 9 11 12 12 13 12 11 12 10 7 7 6
5 1 3 8 10 6 3 4 3 3 4 3 4 1 2 4 5 4 3 3 5 5 4 4 3 3 3 3 3 1 1 2 1 5 5 5 6 7 7 9 10 10 11 10 10 10 9 10 10 8 10 8 8 8
9 11 14 12 6 4 3 4 3 4 3 2 3 3 4 5 4 4 4 2 3 3 4 2 2 2 1 1 4 2 3 2 2 3 3 3 4 6 7 9 11 11 10 9 7 6 6 5 6 7 7 8 7 7
15 15 11 7 8 3 4 3 2 4 4 3 3 5 4 5 3 4 4 3 3 3 3 2 2 3 4 3 3 3 3 4 5 4 2 0 2 4 5 5 5 5 5 7 6 5 6 7 6 5 2 3 5 7
6 3 2 5 3 4 3 3 4 2 3 4 2 4 5 2 5 4 3 2 4 2 1 1 1 3 4 4 5 4 3 4 3 3 2 1 3 4 4 3 3 2 2 4 5 5 5 6 5 6 5 5 5 5
1 3 3 3 4 3 4 3 3 3 4 4 3 3 5 3 2 1 1 4 1 3 2 1 3 3 3 2 3 6 5 3 2 1 5 5 5 5 4 3 2 2 2 3 5 6 6 5 5 4 4 4 3 4
5 4 4 3 3 2 4 2 4 2 4 2 2 4 3 1 2 1 3 2 4 3 3 4 5 2 5 4 4 5 4 5 4 5 7 5 5 5 4 2 2 4 6 5 3 5 6 6 5 4 4 6 6 6
2 3 4 3 4 4 2 4 2 3 3 4 3 4 2 1 1 3 2 1 5 4 5 6 5 5 4 4 5 7 5 6 7 6 6 7 7 6 7 5 4 4 4 5 5 6 6 6 6 7 7 7 6 6
3 3 3 4 4 4 4 3 3 3 4 2 4 3 1 2 3 2 1 4 5 5 6 5 4 3 4 6 6 7 3 7 8 8 7 7 6 4 3 5 4 4 4 4 3 5 7 7 6 5 6 6 8 8
3 4 3 2 2 4 1 3 3 3 3 3 4 1 2 3 3 3 3 6 7 7 7 6 5 5 5 5 6 6 6 2 2 4 5 2 0 3 1 2 6 6 3 1 5 7 7 6 6 7 7 6 4 6
3 4 4 3 3 3 4 4 3 4 4 3 2 2 2 3 1 4 4 6 7 7 7 6 5 5 6 5 4 4 5 5 3 2 3 1 3 3 3 1 3 4 4 4 4 5 6 5 5 6 6 7 7 9
4 3 5 4 4 4 5 4 3 3 2 0 3 3 4 6 5 4 3 7 8 8 8 7 5 4 5 5 5 6 5 5 4 4 4 4 1 2 3 2 5 2 3 4 4 4 3 3 3 4 5 6 7 5
5 4 4 7 6 5 5 4 3 2 0 2 3 4 4 3 2 3 6 7 9 9 8 7 6 5 4 4 3 3 4 5 6 6 6 2 5 6 4 3 5 5 5 6 4 6 4 3 3 4 5 5 6 7
5 5 4 5 5 4 3 4 3 1 2 3 3 2 3 3 3 3 7 9 9 9 9 8 7 6 5 5 6 5 4 4 4 1 3 4 6 5 4 4 4 4 5 6 7 8 4 6 5 6 5 5 5 5
2 4 5 5 4 3 1 1 4 3 4 4 4 5 1 4 4 4 7 9 9 8 7 7 7 7 6 6 5 7 8 7 5 4 3 6 6 6 6 5 3 3 5 6 5 3 5 7 6 6 6 6 5 5
4 6 4 4 4 0 2 3 3 4 2 3 5 4 4 4 4 7 7 8 9 9 8 8 7 7 6 4 3 2 4 8 8 8 10 5 6 7 6 6 6 6 6 5 4 4 4 4 5 5 6 4 5 7
5 5 6 5 4 4 3 4 4 3 2 2 2 2 4 3 1 4 7 9 9 10 10 8 5 4 5 4 4 5 4 5 7 8 7 4 9 7 6 5 6 6 6 5 5 6 4 3 4 4 4 4 5 6
Wind_Direction
334 328 327 329 332 332 331 330 331 332 333 337 338 336 331 272 194 179 224 213 211 252 269 266 250 254 229 207 245 294 266 208 220 232 227 239 243 236 227 220 234 248 215 218 232 238 243 146 153 209 84 113 161 189
333 326 325 328 329 325 325 326 328 329 332 333 337 343 343 318 207 179 201 216 191 244 296 314 285 284 281 283 284 253 305 318 332 280 303 277 266 243 235 248 225 229 212 226 251 226 27 190 350 95 302 314 287 213
328 324 324 324 325 322 320 320 324 326 327 327 327 340 344 334 258 176 191 155 204 251 258 247 249 253 238 235 238 252 203 333 327 352 335 285 266 279 248 233 248 236 254 201 192 220 243 243 263 277 278 242 229 194
322 323 320 321 318 317 315 315 319 322 322 324 326 329 345 342 288 176 164 165 263 299 264 290 247 240 257 252 231 226 250 219 243 182 201 273 276 284 270 247 237 270 191 225 224 244 196 214 208 228 149 149 150 159
322 322 316 314 312 314 312 311 316 321 321 323 326 330 345 358 13 174 153 189 192 264 302 306 308 260 240 222 235 235 233 235 232 224 199 216 275 268 256 264 238 222 268 255 236 177 216 194 190 189 162 136 130 122
320 316 313 309 311 309 307 307 312 317 316 317 324 317 344 36 94 141 204 188 186 163 269 273 310 277 241 226 233 248 220 228 224 206 202 206 227 232 248 251 250 272 272 272 284 289 236 224 177 196 160 139 137 139
315 312 311 310 310 302 302 303 308 311 310 311 316 297 249 304 265 241 337 69 177 140 250 265 271 216 239 222 235 211 220 227 220 212 227 263 208 193 253 250 250 248 257 292 295 268 252 219 208 176 160 131 125 139
313 310 310 310 307 303 301 304 306 307 306 308 308 274 236 209 226 220 174 183 176 200 228 269 271 270 175 201 219 213 203 203 213 233 180 202 280 286 255 255 251 260 262 271 271 239 253 199 144 152 144 139 133 137
309 307 306 305 305 303 300 305 307 308 307 311 285 234 197 225 268 50 105 155 239 249 258 240 284 311 37 270 264 186 229 207 179 217 201 187 179 219 231 248 266 276 261 276 305 238 231 181 157 154 147 146 136 146
309 307 305 302 302 299 298 306 310 308 305 298 238 219 195 79 48 155 183 212 214 187 215 260 213 254 343 265 31 85 137 250 229 205 140 217 248 252 244 265 301 286 291 267 236 207 191 193 168 164 158 149 150 144
309 309 308 305 302 295 300 305 313 313 274 275 303 6 12 37 224 211 228 211 162 222 196 239 246 273 188 247 190 201 208 207 228 199 229 221 247 221 245 277 287 272 229 209 187 269 197 181 165 153 156 143 141 147
314 313 309 303 297 299 301 306 310 290 1 348 325 299 278 240 220 247 232 161 179 249 202 278 285 242 200 214 243 177 230 185 248 130 208 232 92 32 360 326 286 249 176 168 181 145 137 133 156 148 144 143 144 136
312 312 308 300 300 303 306 308 295 267 269 160 225 224 220 201 289 25 325 303 324 322 313 323 322 288 240 217 252 238 272 309 125 225 226 58 34 354 338 335 285 197 173 131 158 125 154 153 149 148 139 133 130 135
311 307 301 297 301 294 301 302 298 258 258 256 270 307 273 228 14 348 321 318 313 298 325 326 292 247 279 238 211 220 167 170 271 307 37 32 349 340 338 338 305 177 183 149 157 143 143 146 139 132 124 132 141 147
311 305 293 278 270 302 304 299 269 223 257 262 259 248 22 360 302 329 316 294 299 319 295 304 260 236 251 285 323 310 217 82 35 15 344 353 325 317 335 339 273 174 151 143 154 151 149 133 126 122 131 146 155 152
312 293 223 340 320 314 309 264 195 225 238 253 234 265 2 275 359 343 347 343 360 311 279 228 272 266 165 303 310 15 2 45 27 331 338 316 333 354 348 11 157 153 137 138 133 130 125 126 134 129 133 139 150 161
297 251 106 326 321 304 260 257 209 220 258 228 233 245 278 280 336 344 338 351 343 283 325 301 281 6 294 287 78 10 32 29 334 341 333 350 11 23 37 74 100 115 118 123 128 130 125 124 137 131 130 141 152 159
250 283 259 322 332 285 198 228 253 260 248 232 268 74 251 285 291 311 304 343 317 342 299 6 326 346 340 334 46 67 107 98 3 357 344 11 34 52 64 81 85 91 92 95 103 112 128 138 135 125 133 145 143 146
298 306 305 306 299 305 265 200 247 267 257 312 266 253 265 276 279 283 276 240 309 316 278 245 273 325 1 5 341 348 327 298 313 32 341 29 47 61 69 70 68 67 71 72 80 96 105 99 113 149 145 168 159 151
280 275 276 284 208 252 246 200 237 265 269 53 259 257 260 282 306 251 249 246 278 282 233 267 344 9 357 30 352 347 332 331 294 252 96 287 104 74 57 66 65 57 82 91 90 101 93 78 64 62 78 76 146 142
256 110 240 231 207 246 280 288 247 286 310 260 332 281 290 235 264 265 256 190 237 319 285 42 39 68 24 348 356 355 336 283 263 297 84 129 104 106 97 73 58 336 203 157 108 94 96 103 93 75 58 63 92 87
334 303 265 172 257 178 251 247 284 316 258 296 276 265 277 279 281 334 79 224 266 59 21 34 70 114 139 61 49 31 24 23 351 80 102 114 117 102 69 17 132 125 103 97 133 139 129 133 135 131 113 81 75 102
277 212 226 227 249 187 257 225 252 215 269 312 258 262 231 271 3 216 228 11 65 53 107 114 105 95 101 125 115 98 44 37 61 92 96 91 105 95 77 344 282 161 151 146 138 135 131 126 149 149 166 186 168 156
130 259 272 246 214 258 233 228 225 256 258 251 259 275 296 338 155 244 292 85 83 126 142 143 171 143 135 142 104 110 116 107 94 96 132 140 147 158 179 192 195 134 143 122 116 143 150 140 137 167 171 165 169 161
264 256 177 275 243 244 239 221 222 231 258 269 271 261 108 206 260 275 327 116 151 150 140 163 181 189 115 100 113 113 198 156 128 126 152 158 160 147 152 154 148 148 164 186 181 153 156 173 169 174 178 164 175 152
247 203 192 239 186 249 278 259 229 268 284 256 236 284 225 250 251 287 58 138 155 153 159 163 155 145 138 133 138 149 147 144 141 126 139 185 161 163 188 141 158 148 207 171 150 145 157 177 183 189 196 174 176 212
248 221 198 219 281 270 258 245 275 260 256 256 270 263 236 241 278 76 105 144 153 156 159 160 164 167 137 145 131 126 143 170 215 9 69 134 334 316 299 187 145 82 156 162 173 158 164 181 185 187 190 187 197 218
258 245 236 154 220 230 271 272 236 243 253 143 267 274 322 353 6 60 84 151 151 148 157 155 174 152 139 147 157 159 168 184 184 220 229 218 217 250 206 194 99 33 272 153 161 162 173 170 178 189 196 194 185 223
243 208 218 241 225 221 224 247 243 189 232 243 301 18 10 55 49 120 141 153 153 157 162 167 177 191 179 190 193 211 179 188 194 198 242 123 137 113 151 164 153 178 146 152 53 43 119 140 156 163 169 187 159 193
224 197 242 242 230 228 193 197 264 25 239 284 323 196 185 143 96 126 156 162 170 178 180 182 171 197 202 195 162 162 182 189 244 293 102 82 92 114 131 132 137 151 150 154 142 130 93 153 147 159 159 154 163 174
261 215 241 247 262 261 334 275 249 246 248 241 226 277 346 122 136 172 181 181 181 182 184 181 181 201 210 203 216 184 169 176 173 149 108 118 134 135 123 102 107 144 162 164 168 188 182 213 209 177 170 206 146 248
210 223 234 250 264 128 252 234 231 235 232 241 240 216 163 211 202 154 185 183 194 192 189 204 190 188 189 214 189 206 10 132 164 171 173 166 137 146 156 142 126 140 155 137 143 160 180 196 176 191 153 190 202 200
230 233 244 270 249 231 201 236 222 243 206 285 308 261 218 251 256 122 158 192 193 191 183 192 215 115 118 205 171 151 195 170 135 149 158 124 142 157 171 165 149 157 160 174 164 143 171 203 212 216 240 249 238 241